Wind_Speed
19 19 19 19 18 17 16 15 15 15 14 14 14 13 13 13 13 13 12 12 12 12 12 12 12 10 8 6 5 5 5 6 6 5 6 7 8 9 8 8 7 6 5 4 5 4 4 4 4 7 6 6 6 5 5 5 6 5 4 5 5 5 3 3 4 2 1 2 9 11 13 10 7 9 8 7 8 8 6 6 8 10 10 10 8 6 6 10
20 20 20 20 19 18 17 16 15 15 15 14 14 13 13 13 13 13 12 12 12 12 12 12 12 11 9 7 5 5 5 5 5 5 7 7 8 9 8 8 7 6 5 5 5 4 4 5 6 7 6 6 5 6 6 4 6 4 3 5 6 3 2 2 1 1 3 1 7 11 11 9 5 9 9 7 8 10 9 9 11 11 10 13 13 11 8 9
20 21 21 20 19 19 18 16 16 15 14 14 13 13 13 13 13 12 12 12 12 12 12 12 12 11 9 7 6 5 4 5 6 7 9 8 8 9 8 7 6 6 6 5 6 6 5 5 7 6 6 5 4 6 6 4 6 3 3 6 3 1 4 4 3 4 5 3 4 9 9 7 4 6 8 8 9 9 10 10 11 11 12 14 15 15 13 10
20 21 20 19 19 19 18 17 16 15 14 13 13 13 12 12 12 12 12 12 12 12 12 12 12 11 9 7 6 5 4 5 7 10 9 8 8 8 8 7 6 6 6 5 6 7 6 5 7 6 6 5 5 6 6 5 5 2 3 4 2 2 1 4 4 5 5 3 2 6 7 8 5 5 7 7 8 8 10 13 12 11 11 14 16 15 16 14
19 20 20 19 19 18 17 16 15 14 13 13 12 12 12 12 12 12 12 12 12 13 12 12 12 11 10 8 6 6 5 4 8 11 9 8 7 7 8 7 6 6 6 5 5 6 6 6 6 6 6 5 6 7 5 5 4 3 2 2 5 3 1 4 3 3 4 3 3 6 5 7 6 6 9 10 9 5 3 6 9 9 6 9 13 12 14 16
18 19 19 19 18 17 16 15 14 13 13 12 12 11 11 11 12 12 12 13 13 13 13 12 12 12 10 8 7 8 7 2 5 10 9 8 7 7 8 7 7 6 6 6 5 7 6 7 8 7 6 4 7 6 4 6 4 3 2 3 3 3 2 3 1 3 2 1 2 4 3 3 5 8 9 12 15 8 4 3 4 6 6 7 10 12 13 15
18 17 18 18 18 16 15 14 14 13 12 12 11 11 11 11 12 12 12 13 13 14 13 12 12 12 10 8 7 8 8 4 2 8 8 7 7 8 9 8 7 6 6 5 5 6 7 9 8 7 6 4 6 5 5 5 5 5 2 5 3 4 3 2 1 3 2 1 2 1 1 3 7 7 4 11 19 15 12 13 9 8 9 10 11 12 13 15
18 17 17 17 17 16 15 14 13 13 12 12 11 11 11 11 12 12 12 13 14 14 13 13 13 12 10 9 7 8 8 5 3 7 8 8 9 9 10 8 7 6 6 6 5 6 7 9 7 7 5 2 4 6 5 5 6 6 2 6 3 3 3 3 3 2 2 2 2 2 4 4 6 5 5 14 18 14 15 18 18 15 14 13 13 13 13 14
18 18 18 16 16 15 15 14 14 13 12 12 11 11 12 12 12 12 13 13 14 14 13 13 13 13 11 9 7 7 7 6 4 7 9 10 11 11 10 8 7 5 4 5 6 6 7 7 7 6 2 4 5 6 5 4 3 2 3 6 5 5 4 4 4 3 2 2 1 4 5 3 3 5 10 18 18 14 16 19 21 21 19 19 18 17 16 16
19 19 19 17 16 15 14 14 14 13 13 12 12 12 12 12 13 13 14 14 14 14 14 14 13 13 11 9 8 6 6 7 6 8 10 11 11 10 9 7 6 5 2 3 6 7 6 5 7 5 3 5 5 4 3 2 1 4 6 6 5 5 4 3 4 4 2 2 2 5 4 3 3 4 8 10 12 15 17 18 20 22 23 22 21 21 21 20
18 19 19 18 17 16 15 14 13 13 13 12 12 12 12 13 13 13 13 14 14 14 14 14 13 12 10 9 9 6 7 8 8 10 11 12 11 9 7 5 5 4 2 1 5 8 6 6 8 5 3 6 7 5 3 2 3 5 7 6 5 4 5 5 4 5 4 2 3 4 5 5 4 5 12 9 7 10 10 10 13 17 20 20 18 20 23 23
18 18 18 18 17 16 15 14 13 13 13 13 13 13 13 13 13 13 13 14 14 14 14 14 13 11 10 10 9 5 8 9 9 11 12 11 10 8 5 5 4 4 3 2 3 7 6 8 8 2 4 8 7 5 4 5 4 4 5 4 6 5 5 8 5 4 5 2 2 2 6 9 9 13 18 13 12 12 10 9 10 13 16 17 17 18 23 25
19 19 18 17 16 15 15 14 14 13 13 13 13 13 12 13 13 13 13 13 14 14 14 13 12 11 10 8 7 6 7 9 11 12 12 12 9 7 5 4 4 4 4 3 4 6 7 9 7 4 7 6 4 5 6 6 3 5 5 4 4 6 6 8 6 3 4 2 3 2 5 7 10 15 15 13 15 14 12 13 12 14 14 15 18 20 23 24
19 19 18 17 16 16 15 14 14 13 12 12 12 12 12 12 13 13 13 13 14 14 13 13 11 11 9 5 6 9 7 8 12 13 12 11 8 5 3 2 3 4 5 4 5 6 7 8 6 6 8 5 6 8 6 5 3 4 4 4 4 5 4 7 5 4 5 3 4 4 5 6 4 6 10 12 14 11 11 13 13 14 13 14 17 22 25 24
18 17 17 16 16 16 15 14 14 12 12 11 11 11 11 12 13 13 13 13 14 14 13 12 11 10 8 4 6 11 9 8 10 13 13 11 8 5 3 3 4 5 6 6 6 7 8 8 6 6 7 7 9 8 5 5 4 4 3 4 5 4 3 6 4 4 3 2 6 6 4 8 6 5 8 8 10 10 11 12 12 13 13 13 15 18 23 24
14 16 16 16 16 16 15 15 13 12 12 11 11 10 11 11 12 12 13 13 14 14 12 11 12 9 5 5 7 9 10 10 10 12 13 12 10 6 5 5 6 7 7 7 7 8 9 8 6 6 7 7 7 5 4 5 4 5 5 4 5 6 4 5 3 2 1 2 7 10 6 6 3 5 5 4 6 8 8 9 11 13 13 13 14 16 19 21
11 13 14 15 15 15 15 14 13 13 11 11 11 10 10 10 11 11 12 13 13 13 13 10 11 9 5 4 6 7 11 12 12 12 13 13 10 8 8 7 7 7 7 8 7 7 6 6 6 6 5 5 5 5 5 5 5 6 5 5 4 6 5 3 3 3 3 3 6 10 9 10 9 5 6 6 7 9 10 14 16 16 15 15 15 15 18 20
10 11 13 14 14 14 14 13 13 13 11 12 11 11 11 10 11 11 11 12 12 12 11 9 11 7 4 8 8 8 13 14 13 13 13 14 11 10 9 8 8 8 8 7 6 4 3 4 4 3 4 5 5 6 6 4 4 6 7 6 5 5 7 5 2 4 4 5 7 8 9 13 15 15 15 15 13 14 15 19 19 18 19 19 19 18 19 20
9 9 11 13 13 14 14 13 13 13 13 13 12 12 12 10 10 10 11 13 12 8 5 10 13 4 1 11 13 10 12 13 13 13 14 15 13 11 9 8 8 8 7 6 5 4 3 4 4 4 5 7 7 8 8 2 3 3 3 5 5 4 6 4 3 3 2 4 7 11 11 13 14 14 17 19 17 17 19 19 18 18 19 21 22 23 22 22
8 7 8 10 12 13 14 14 14 14 14 14 15 14 11 11 8 6 11 12 11 7 2 9 14 3 3 11 14 10 10 11 12 13 15 16 15 12 9 9 8 6 5 3 4 4 3 4 5 6 6 8 9 8 4 2 3 2 2 3 5 4 3 3 5 3 1 4 7 10 11 13 14 14 16 20 19 20 21 20 19 19 19 22 24 26 27 27
6 6 6 7 9 11 13 15 15 15 16 15 18 15 8 10 7 5 11 10 13 13 4 10 14 5 4 9 13 11 9 10 10 13 16 16 16 12 9 10 7 6 3 3 5 4 3 5 7 7 2 0 2 3 1 1 2 3 4 4 4 5 3 3 4 2 1 3 6 7 11 13 13 13 17 19 18 19 20 20 21 21 21 22 24 27 28 28
5 5 5 5 7 8 11 14 15 16 18 17 20 15 7 11 8 5 11 7 12 17 8 9 12 7 5 7 13 14 9 7 8 14 16 16 16 10 9 11 7 5 6 5 4 4 4 7 6 4 5 5 3 1 3 5 5 4 4 4 4 3 2 3 4 1 2 3 5 5 9 13 14 14 17 19 19 21 22 21 21 21 21 23 24 25 23 22
9 7 6 4 5 6 7 11 14 16 19 19 21 17 9 11 9 6 9 3 7 16 13 10 9 8 8 8 12 14 10 7 7 13 18 17 14 9 9 11 9 5 7 7 7 5 5 5 2 5 6 4 2 2 5 4 5 5 4 5 3 1 2 1 2 1 3 4 6 7 8 12 14 13 16 20 22 24 22 19 20 21 23 26 28 25 21 19
13 11 9 6 4 5 5 7 10 15 19 20 21 18 10 10 10 8 8 2 1 10 14 15 11 10 12 9 10 12 9 6 7 13 20 18 12 9 8 9 9 6 6 9 10 8 4 2 3 4 4 5 4 5 6 5 5 6 6 7 5 2 2 1 2 2 5 5 3 6 7 9 10 10 11 9 11 15 16 15 17 19 23 28 29 28 25 25
17 15 12 10 7 5 4 4 6 11 17 20 20 17 11 9 11 9 6 3 2 6 9 14 13 11 15 13 10 9 6 6 7 11 20 19 11 9 6 4 6 7 9 10 9 10 3 4 3 4 4 6 6 5 7 7 5 6 7 8 9 6 3 2 3 4 5 3 1 3 5 5 6 9 10 6 5 9 11 13 15 19 23 25 25 26 26 27
17 17 14 13 10 7 5 3 4 7 12 18 18 15 12 11 10 9 6 3 4 5 6 9 10 10 14 13 11 9 4 7 9 11 19 21 14 9 5 3 3 4 6 7 4 5 2 4 3 5 5 5 5 6 7 7 6 5 3 3 7 6 3 3 4 3 4 3 1 1 4 5 8 12 14 11 10 11 10 12 16 18 20 21 20 20 20 22
14 16 16 15 13 11 7 4 5 5 5 12 17 15 13 13 11 8 5 3 4 7 8 8 9 9 10 12 16 11 3 7 11 10 18 21 15 10 7 6 5 2 2 4 3 2 5 6 4 5 6 5 6 5 5 9 7 2 1 2 1 2 3 3 3 4 3 5 2 4 3 6 7 12 15 10 9 12 11 13 15 17 19 17 15 14 14 15
15 15 17 18 16 13 10 7 6 5 4 7 15 17 14 14 12 7 4 5 3 7 7 7 9 10 12 16 17 9 3 10 8 9 19 21 15 10 8 7 7 7 7 6 6 1 4 7 7 8 7 6 5 1 2 10 7 0 2 1 3 3 1 1 2 4 2 4 5 5 5 6 6 9 11 6 6 11 12 13 13 14 14 11 9 9 9 9
17 17 17 18 16 14 13 10 8 8 5 5 13 18 15 14 10 3 4 4 3 5 4 8 10 9 13 15 11 5 5 5 1 8 18 17 13 7 4 6 6 7 9 7 5 2 3 1 4 7 7 5 3 5 3 4 3 3 3 4 6 4 3 2 2 3 2 5 6 6 9 6 7 7 8 5 5 9 11 11 8 5 4 4 3 3 2 3
16 18 18 17 17 17 16 14 12 11 6 5 12 18 15 11 6 5 6 4 3 3 4 7 9 10 15 13 7 6 6 2 4 11 11 8 10 5 1 4 3 4 6 4 3 2 3 2 1 3 3 1 6 7 6 3 3 7 6 4 4 2 2 0 2 1 4 6 4 6 11 7 7 4 7 5 2 5 6 4 3 6 7 7 3 1 1 2
14 17 19 19 21 20 18 18 17 15 11 7 13 18 13 5 3 7 7 1 0 3 5 6 7 11 17 14 8 7 6 4 8 13 8 5 8 6 4 5 2 3 3 4 4 3 3 2 2 2 1 4 7 6 5 4 3 5 4 3 2 2 1 2 2 2 5 6 1 1 3 6 8 3 4 2 1 2 2 2 3 3 3 5 2 3 3 2
13 15 18 20 22 21 20 21 18 18 17 11 14 17 9 3 3 6 5 3 1 5 7 7 8 10 15 14 9 9 8 7 10 11 9 8 8 7 9 7 6 6 5 6 6 3 4 6 4 4 2 5 7 5 4 2 2 4 4 5 3 3 3 4 5 4 6 4 2 1 2 4 11 6 2 3 3 3 3 3 3 5 7 4 3 8 9 7
13 15 18 19 20 21 22 21 18 18 18 13 14 10 2 3 6 7 7 5 1 2 4 6 8 10 14 12 8 9 8 6 10 9 8 10 9 9 12 11 11 8 5 7 6 4 4 4 5 5 2 7 9 5 5 4 5 7 7 7 6 5 5 6 6 5 5 2 2 0 0 5 11 6 6 10 9 7 4 5 9 11 15 14 11 14 16 15
13 14 17 18 19 21 21 20 19 18 15 13 12 6 2 6 6 8 10 5 2 2 4 7 9 10 12 10 6 10 7 5 10 8 7 10 8 8 11 12 14 10 4 5 6 7 7 4 8 10 7 12 13 9 8 6 8 10 8 7 7 6 6 7 5 5 5 1 1 2 2 5 5 3 1 3 2 5 6 10 15 17 18 18 18 20 21 20
12 13 17 19 19 21 21 20 20 17 15 14 9 4 6 7 3 6 8 3 3 3 5 8 10 9 10 6 4 8 3 2 10 8 6 10 8 8 10 10 14 11 6 7 5 7 10 7 8 8 8 18 16 12 11 7 7 7 5 7 8 5 6 5 1 1 2 2 2 4 4 6 4 5 6 4 3 5 7 10 12 13 14 14 16 20 20 19
11 12 16 18 19 20 20 19 17 16 17 16 7 2 8 5 1 4 3 1 3 6 8 8 8 8 9 5 4 7 2 1 8 8 5 9 9 10 10 9 14 15 11 9 4 5 8 4 5 5 6 13 9 6 8 4 3 5 5 7 4 1 3 5 1 3 1 5 6 5 7 8 7 10 11 12 12 12 11 11 10 10 15 16 20 25 25 23
9 9 12 16 19 19 19 19 17 16 17 13 5 4 6 4 4 4 1 1 1 6 9 7 6 8 9 7 6 10 6 3 8 7 6 7 7 10 12 10 14 18 17 14 6 4 6 3 2 4 5 6 1 2 2 2 1 3 5 6 3 4 2 4 4 1 3 8 6 6 11 11 7 7 2 6 8 7 6 9 10 12 15 16 21 27 29 27
8 7 10 15 19 19 19 19 18 16 14 7 3 4 5 6 9 10 5 1 0 4 8 7 7 8 9 8 8 11 11 7 9 8 7 7 5 11 15 10 12 18 22 20 9 2 5 5 2 1 2 4 3 1 3 1 1 0 1 2 2 2 4 5 6 5 6 8 6 8 13 11 9 10 4 3 5 5 6 8 9 9 10 11 12 15 18 19
7 6 10 15 20 20 19 18 18 16 11 4 4 5 6 6 10 13 11 5 2 1 5 4 2 4 7 7 7 11 12 9 10 9 7 7 5 10 15 11 10 15 20 20 10 2 4 6 3 1 1 4 5 5 7 6 3 1 2 2 1 2 4 5 6 5 6 8 6 9 11 9 9 11 11 10 9 9 8 6 5 5 7 8 7 7 9 12
7 5 7 13 19 20 19 18 18 14 7 4 6 5 6 5 7 12 15 10 4 3 4 2 1 2 3 2 2 7 10 10 10 9 8 8 7 7 11 12 9 11 17 18 11 4 4 5 5 1 1 3 5 8 11 10 8 5 5 6 5 2 1 2 5 6 6 7 7 8 9 9 7 5 7 9 7 6 3 2 3 4 7 9 8 9 10 12
7 5 6 12 18 20 22 17 12 8 3 5 8 7 6 5 5 10 15 14 8 4 4 3 2 3 0 1 1 1 5 8 8 8 7 9 9 6 5 8 8 9 11 13 11 8 6 6 6 4 4 7 7 6 7 7 9 10 9 10 10 8 5 4 7 6 5 5 6 6 8 10 6 1 3 5 5 4 3 3 4 6 7 7 8 12 15 16
10 5 3 12 18 22 24 14 6 6 5 6 9 10 6 4 5 10 13 13 10 5 4 4 5 5 2 2 1 2 1 3 3 5 5 6 10 6 2 2 7 12 10 7 9 9 5 4 7 6 6 6 3 2 1 2 3 6 7 9 10 9 8 8 8 5 4 4 4 5 7 11 7 1 1 3 3 3 2 1 5 6 6 8 11 17 21 22
13 8 4 12 21 25 21 10 6 7 6 8 11 10 7 6 7 10 12 12 10 8 8 7 7 9 8 7 5 2 2 1 1 3 4 4 7 7 2 4 6 11 9 4 5 7 3 3 7 7 5 3 3 3 2 1 2 5 7 7 7 8 9 8 4 1 3 6 6 5 7 11 8 1 0 2 1 1 4 6 7 6 8 12 16 21 23 23
14 10 7 11 22 26 17 8 9 10 9 11 11 9 10 10 10 10 11 12 10 7 9 9 10 12 11 9 8 6 5 4 4 6 6 5 4 6 5 8 8 8 7 3 4 7 5 4 6 7 6 5 5 5 4 3 3 5 7 7 7 10 9 4 1 1 5 8 10 9 8 10 9 1 3 2 2 4 7 7 7 8 11 15 19 21 20 19
11 9 8 11 19 23 17 8 7 10 12 13 11 12 13 10 10 14 12 12 13 9 8 10 12 13 11 10 10 9 9 8 6 6 8 8 3 1 5 10 10 8 6 3 4 8 5 2 5 7 8 9 8 5 4 5 5 4 6 9 10 11 11 6 2 4 8 10 12 11 8 11 14 8 2 3 4 6 6 5 6 10 14 16 19 19 18 17
10 7 6 10 15 17 15 11 8 7 11 14 11 13 16 11 9 15 15 13 14 13 9 9 12 13 11 12 12 10 12 13 9 7 7 9 6 1 4 11 13 12 9 6 8 7 1 1 3 6 8 10 8 3 2 6 8 8 10 12 12 12 13 9 6 7 9 9 11 12 10 14 20 19 13 8 6 6 7 8 8 10 13 13 14 17 18 17
10 7 7 9 10 11 11 12 13 9 9 13 10 9 16 16 10 12 14 13 14 15 10 6 10 11 10 13 12 11 14 15 14 12 11 10 7 1 3 7 10 11 9 9 10 7 3 2 6 8 11 13 12 10 4 2 7 11 12 13 13 13 13 11 10 12 11 10 12 13 14 16 19 21 21 18 13 10 9 12 13 11 9 9 13 19 22 19
11 9 12 12 8 7 8 11 16 16 12 13 10 8 13 17 14 12 12 12 14 16 10 6 11 14 13 14 11 10 13 14 14 15 14 12 8 3 3 3 4 7 7 7 8 7 3 6 9 9 13 16 15 16 15 11 9 10 11 13 14 15 15 14 15 17 15 12 12 13 16 17 18 21 23 19 16 16 17 18 20 16 12 14 20 25 27 27
15 12 14 13 9 9 11 13 15 17 16 13 10 10 12 15 17 15 11 9 11 15 13 11 14 16 16 16 13 10 12 12 11 12 11 9 9 5 4 3 2 5 6 5 6 5 4 7 10 10 12 16 18 18 17 16 16 15 16 16 14 13 15 17 18 20 21 19 16 17 21 21 20 22 23 22 22 24 23 21 19 18 17 19 24 27 28 31
18 14 11 10 9 9 13 14 13 12 13 12 11 12 13 15 17 15 13 13 11 11 15 16 17 17 17 18 16 13 12 11 11 12 11 9 8 6 5 5 3 3 4 3 2 2 3 6 8 8 9 13 17 18 18 18 17 17 16 15 14 14 15 18 18 18 17 18 19 21 22 21 20 20 21 27 29 25 22 20 17 19 22 23 25 27 28 31
21 18 13 8 7 8 9 12 13 10 9 10 11 13 14 17 17 13 13 17 15 12 14 18 18 15 15 18 19 17 17 15 13 12 8 6 6 4 3 4 5 4 3 3 1 2 3 3 2 4 6 10 13 15 17 15 14 14 14 14 17 19 17 16 14 12 13 15 18 19 17 16 18 16 17 25 25 19 20 22 20 23 27 27 28 28 28 33
25 21 16 9 7 9 8 8 11 12 10 11 13 14 15 16 16 14 11 12 14 13 12 15 16 12 11 16 18 16 14 12 9 8 6 5 6 6 5 5 3 2 3 5 4 3 5 4 3 4 6 9 12 14 13 11 9 9 12 16 20 21 20 16 13 15 18 17 15 13 13 15 18 16 15 19 18 14 17 20 22 27 29 28 28 28 30 35
Wind_Direction
190 192 194 195 195 197 200 199 202 203 204 206 206 209 210 214 215 215 215 214 214 211 209 204 203 203 202 205 199 191 182 177 172 170 185 198 198 186 179 174 171 169 162 155 143 137 141 159 162 140 148 158 148 150 155 147 151 172 209 227 233 230 222 176 203 203 7 114 145 163 176 189 172 173 201 209 218 226 231 222 220 236 229 234 239 216 216 203
191 194 196 195 194 196 200 200 202 204 206 207 207 210 211 214 215 216 215 214 214 211 210 207 205 204 205 209 206 199 190 185 178 190 206 199 192 188 181 179 177 175 172 163 153 162 175 181 169 155 168 164 145 156 160 151 167 201 235 224 239 243 78 64 287 71 17 4 152 163 183 199 177 164 185 205 213 207 224 227 216 233 232 232 234 220 214 202
192 196 197 195 194 196 199 200 203 205 207 208 209 211 213 215 216 217 216 214 213 211 210 209 207 206 208 209 208 206 194 192 194 208 212 197 194 191 184 186 184 179 181 177 173 188 195 177 171 172 181 166 146 165 164 169 187 220 248 230 246 65 77 63 38 66 45 12 161 165 176 198 176 155 177 209 225 208 224 229 210 221 222 225 231 222 218 211
196 197 198 196 196 197 199 199 202 206 207 209 211 214 216 217 218 217 216 214 212 211 209 209 208 205 208 209 209 200 191 209 210 215 215 199 196 191 190 192 183 182 181 179 172 177 176 170 175 176 190 170 143 174 173 170 185 176 222 250 9 20 81 84 72 75 60 30 164 152 163 197 187 168 190 213 235 221 229 234 220 226 222 215 224 226 226 226
202 200 198 197 199 199 199 200 203 206 209 211 214 218 220 220 220 218 215 213 211 210 209 209 208 205 207 209 208 185 183 208 200 207 211 197 197 191 192 187 177 179 173 172 164 168 170 170 170 174 200 172 149 183 167 153 189 185 199 356 28 339 345 83 83 120 87 56 140 151 165 187 174 198 217 220 232 232 253 239 214 231 230 199 218 233 233 235
204 203 200 198 199 200 200 202 204 207 210 213 217 221 225 224 222 218 214 211 209 208 207 208 207 204 205 208 208 195 202 245 191 197 201 193 194 186 184 178 174 172 165 163 161 175 175 178 181 182 198 175 171 185 125 146 200 224 175 98 59 7 30 77 78 184 151 51 166 161 156 163 191 223 223 226 233 241 312 300 204 225 233 214 236 246 240 242
201 201 203 201 199 200 202 205 207 210 212 216 220 224 227 225 222 218 212 209 206 206 204 205 205 201 205 208 208 210 223 273 225 195 192 187 182 174 173 167 168 166 163 161 172 190 183 192 198 188 191 171 179 171 108 147 194 252 202 124 101 42 61 71 70 199 181 260 251 175 233 214 220 233 219 233 238 242 265 270 253 242 240 236 245 250 247 248
195 198 204 205 202 201 203 207 209 212 214 217 222 225 227 224 220 214 210 208 204 205 202 201 202 197 202 203 204 216 218 234 223 186 176 175 169 165 164 158 159 158 164 171 187 199 193 201 197 190 196 138 159 155 133 162 194 245 208 123 123 86 92 83 97 154 149 246 265 224 242 227 224 255 266 251 248 244 249 258 259 256 253 248 246 251 251 249
192 195 201 204 206 205 205 207 209 212 215 219 223 224 224 221 217 211 207 206 203 203 200 199 197 195 201 198 205 219 205 206 203 172 166 166 163 163 159 151 154 148 156 178 184 190 196 203 192 195 187 110 142 141 152 196 199 208 136 125 134 118 107 108 124 126 143 213 209 224 230 198 218 264 266 255 252 246 240 249 259 260 258 255 251 252 252 250
194 192 196 201 205 206 207 208 208 211 213 218 221 220 220 218 215 209 205 202 202 201 197 196 192 193 197 190 206 218 192 195 183 166 168 163 161 162 157 152 154 144 140 192 190 188 203 204 184 184 116 115 139 125 161 232 55 114 127 125 127 128 130 143 153 148 171 169 188 247 242 189 189 238 255 246 239 240 244 249 256 259 257 255 253 253 253 251
197 193 192 197 202 204 205 207 209 212 214 215 215 215 215 213 210 207 204 201 199 197 194 192 189 193 190 189 216 218 183 190 176 170 171 165 166 165 161 167 168 156 136 193 199 190 202 190 176 183 148 141 136 111 107 105 95 130 137 132 132 143 157 178 179 167 194 176 185 266 276 237 174 210 242 236 231 235 239 246 249 256 256 251 248 248 252 251
195 192 191 194 198 200 202 204 206 210 214 213 211 211 209 209 206 202 201 198 195 193 190 188 188 189 185 196 225 210 174 184 175 173 176 172 172 170 174 185 191 195 159 152 195 183 182 167 161 141 129 148 142 125 117 111 108 139 165 178 160 183 195 185 179 176 220 200 142 277 278 248 205 222 239 229 236 241 238 247 245 253 256 250 244 242 251 254
189 189 190 192 194 196 197 198 200 205 209 210 208 206 204 204 200 196 195 194 191 188 186 186 186 186 189 203 213 185 171 177 176 176 179 180 180 181 193 200 207 214 177 165 173 162 162 163 159 119 126 143 126 119 119 113 123 157 195 247 178 207 211 176 166 176 225 183 130 249 270 253 216 220 225 214 230 240 242 250 248 249 251 248 246 245 251 256
183 187 188 189 190 191 192 193 195 198 202 204 203 201 200 198 195 192 190 189 186 184 184 184 183 182 194 211 198 189 178 166 176 180 180 182 182 183 194 203 197 195 180 168 160 154 154 154 153 140 131 113 109 124 127 130 174 170 184 248 218 227 186 149 159 183 213 171 151 229 256 268 260 180 181 207 227 233 241 250 252 252 249 244 245 250 253 253
182 185 186 187 187 186 186 188 190 190 192 193 195 196 194 193 191 187 185 184 182 182 181 182 179 181 199 217 197 196 189 175 180 182 184 182 173 163 169 170 156 162 163 155 157 153 143 135 130 128 114 110 131 148 157 158 194 189 187 218 214 234 154 130 151 187 218 162 169 213 248 261 269 122 149 216 227 224 242 253 257 257 253 247 244 252 256 253
186 186 186 186 185 185 184 183 185 184 184 183 184 188 188 188 186 183 181 178 178 179 176 178 180 184 208 205 194 200 195 190 186 183 186 183 173 160 150 150 144 145 144 143 150 143 135 128 119 122 119 132 163 185 180 177 201 199 221 231 194 215 201 147 147 173 204 143 188 216 252 274 251 124 142 231 220 213 239 257 263 264 259 253 246 249 257 257
186 188 188 187 186 187 184 183 182 179 178 177 175 175 176 178 178 178 177 173 175 174 174 177 178 191 233 207 192 200 198 196 189 185 186 183 177 162 149 148 146 138 133 135 136 133 127 122 127 137 153 187 202 206 199 205 207 190 216 241 205 218 231 187 142 147 186 217 221 220 238 263 267 262 244 239 224 220 248 265 268 269 264 260 255 251 254 257
190 189 188 186 187 187 185 184 179 176 174 171 169 168 167 168 170 172 171 170 167 164 174 178 172 189 230 199 193 201 202 198 188 185 182 180 178 167 160 157 150 142 141 143 137 141 140 142 170 185 188 206 207 207 210 218 234 212 205 221 222 221 241 248 151 146 186 217 238 231 235 252 263 271 267 257 246 238 251 264 266 266 265 263 260 256 255 254
193 196 193 189 188 186 186 184 178 174 169 166 165 162 158 154 157 166 170 168 164 164 181 181 181 199 173 179 191 198 198 191 183 183 178 177 176 167 165 161 158 160 166 170 153 156 164 162 205 224 199 206 208 215 225 266 326 273 213 227 239 226 232 230 109 112 208 232 242 244 249 256 260 266 269 267 262 256 258 262 261 260 261 261 259 258 256 254
179 190 198 196 194 190 188 184 179 174 168 166 163 156 151 152 150 164 177 179 188 205 216 170 183 215 96 169 185 180 177 177 178 183 180 177 170 159 160 158 162 185 195 185 146 148 196 200 204 217 221 220 211 212 233 6 10 335 301 252 246 250 233 143 102 97 227 263 252 248 255 261 264 267 269 270 270 266 263 260 256 253 252 253 255 257 256 255
163 170 187 197 195 194 193 186 181 176 172 171 167 161 162 176 175 168 174 192 212 214 204 173 186 195 139 172 181 165 152 162 176 184 182 176 169 163 167 169 178 196 167 102 109 131 190 223 222 218 217 295 195 190 197 316 292 279 273 261 244 246 235 106 91 130 152 267 263 265 272 267 264 267 268 269 267 262 259 256 253 251 251 251 252 254 255 256
181 170 168 183 184 188 195 190 186 180 177 176 174 175 187 194 201 180 175 201 215 209 210 187 192 194 158 165 179 171 152 152 175 185 181 172 176 182 173 181 207 191 143 128 139 151 201 228 223 170 95 70 67 134 228 250 262 256 250 257 255 238 217 113 95 129 172 248 274 299 293 280 273 269 264 261 258 258 256 253 254 255 255 252 251 251 252 254
199 195 179 176 172 177 186 189 191 187 183 183 183 188 198 196 198 185 186 212 204 206 215 202 195 194 177 163 171 175 171 167 168 180 183 174 179 196 176 188 215 179 157 187 198 200 209 221 189 119 116 134 140 183 217 235 243 240 241 252 247 184 242 217 106 153 203 235 286 310 298 284 279 268 259 250 246 254 258 257 258 256 254 253 253 253 252 250
196 201 192 186 186 181 179 189 196 195 192 191 191 195 200 196 193 182 193 241 183 201 215 214 210 202 194 185 175 180 188 187 165 179 188 179 174 192 187 201 215 195 192 204 212 226 212 83 84 129 157 193 187 179 202 222 234 230 227 240 251 277 299 308 29 297 240 229 273 297 284 275 273 264 261 247 227 243 252 254 255 251 254 259 259 258 257 255
193 194 189 186 193 185 186 207 202 200 200 199 198 197 195 188 184 182 192 243 232 188 208 216 215 213 208 204 184 179 199 197 177 184 187 181 178 185 182 204 217 215 212 203 217 238 216 87 121 146 158 200 201 195 203 217 240 228 214 231 254 281 324 331 353 331 273 236 166 307 287 268 282 277 271 264 225 238 234 232 242 248 257 261 260 262 264 266
200 194 186 182 189 187 190 211 207 208 206 204 202 195 190 180 172 182 190 244 244 176 169 196 202 207 208 202 172 160 202 203 192 191 183 183 184 177 169 168 202 243 211 185 222 253 147 112 152 152 154 178 205 226 203 202 242 242 207 254 259 267 282 280 302 297 282 296 142 299 292 283 296 285 274 273 267 261 246 238 245 249 253 254 255 260 265 269
212 201 192 186 190 191 188 190 202 209 201 206 203 189 183 178 165 170 183 250 242 165 150 173 187 189 185 177 169 170 191 162 168 182 181 184 184 182 197 175 164 230 151 146 229 227 133 155 179 172 173 177 206 234 189 193 230 245 35 342 258 225 240 254 284 259 283 326 266 195 235 271 278 276 276 276 269 268 259 251 249 247 250 251 253 256 257 265
216 207 200 196 195 193 190 189 187 186 187 206 197 184 178 174 163 158 193 241 206 146 147 162 172 179 165 161 170 175 133 141 155 175 178 184 180 184 220 206 193 195 168 184 224 173 124 173 185 180 188 202 205 324 154 200 222 15 37 8 87 92 103 164 277 265 293 319 274 186 182 252 254 259 271 260 251 266 262 257 252 246 247 247 248 251 256 267
213 210 205 201 197 196 199 200 188 183 188 198 189 181 174 169 161 156 219 231 159 124 140 157 162 170 159 159 169 156 130 139 141 164 172 183 176 171 225 212 212 188 170 209 238 56 58 190 201 191 201 212 148 52 22 222 209 139 146 98 89 92 82 86 278 292 292 275 263 181 174 252 275 242 239 223 235 256 258 262 260 235 201 185 208 245 268 281
209 209 206 203 203 204 206 208 204 197 182 164 181 179 172 169 171 190 201 207 177 115 106 149 163 164 158 161 174 173 160 102 88 139 152 175 175 177 180 158 192 170 159 234 254 93 74 51 287 217 222 139 106 72 26 15 116 146 156 122 105 117 88 279 252 335 281 263 265 169 178 233 287 236 205 206 234 249 249 251 179 131 138 142 123 41 338 334
207 206 202 203 209 211 212 211 211 208 195 170 172 175 172 167 195 207 194 135 350 147 127 151 157 159 168 172 171 174 169 123 134 149 144 154 172 181 170 151 162 176 179 239 223 155 144 156 159 173 160 117 117 94 46 44 136 162 170 163 173 199 170 230 207 159 252 248 16 64 191 233 258 233 170 178 349 276 252 242 157 137 148 133 87 304 277 278
206 202 197 202 210 211 213 214 212 210 209 193 170 171 173 179 217 221 189 97 141 174 155 166 164 167 182 185 177 168 166 154 162 171 167 170 180 183 191 189 171 178 216 219 199 164 194 203 156 121 151 182 162 125 90 86 193 201 190 177 211 232 202 229 214 192 238 226 112 341 337 256 252 249 195 222 256 228 217 249 269 290 291 300 309 284 274 262
204 201 197 200 210 213 214 216 212 213 218 200 168 152 126 199 201 210 192 159 160 156 127 151 165 174 184 189 182 164 166 168 171 183 182 179 191 195 204 209 190 199 235 205 186 167 193 199 160 147 170 205 202 173 149 169 188 195 191 182 203 217 218 234 221 214 240 200 93 331 49 257 264 271 230 222 225 225 234 278 281 282 281 284 281 273 273 267
204 202 197 197 210 216 216 216 210 213 220 193 161 116 101 207 204 205 202 182 92 77 94 133 151 167 183 189 176 160 169 181 170 178 183 180 199 204 205 213 207 217 240 203 196 188 211 235 180 179 168 178 200 215 195 171 179 199 202 198 212 220 232 242 233 243 251 184 138 188 190 242 261 353 300 233 254 266 276 281 277 278 278 279 277 273 273 271
207 204 198 197 207 214 217 218 209 210 207 176 146 110 181 202 209 204 205 159 122 121 108 135 147 164 185 188 170 167 178 202 176 181 187 187 205 205 199 206 204 208 208 212 214 191 223 240 168 158 156 168 188 217 206 176 178 198 202 215 228 234 240 254 295 281 304 332 217 194 234 252 261 311 285 267 287 259 245 247 256 273 281 283 283 280 277 274
215 210 204 202 207 211 216 218 213 213 199 169 140 175 196 210 225 193 203 96 143 141 131 148 161 177 190 183 183 188 194 60 173 184 201 203 219 216 209 206 195 197 199 202 209 191 220 242 129 122 155 170 184 213 200 195 184 175 185 210 219 3 260 244 216 91 65 279 253 212 254 270 283 289 260 233 241 243 234 233 230 249 267 272 277 280 280 282
222 221 218 211 207 208 209 214 218 210 190 172 172 195 187 218 227 199 228 0 175 156 152 169 183 189 194 188 189 188 178 147 169 187 196 196 222 219 215 218 200 199 203 206 221 212 217 252 148 168 177 166 45 22 154 350 13 161 195 198 122 42 310 247 243 213 207 248 255 229 250 268 277 279 227 177 217 233 237 242 236 238 247 252 262 272 279 285
229 240 238 217 207 206 202 209 217 197 173 171 221 200 181 200 204 200 191 141 208 191 188 202 197 192 200 198 189 179 174 172 175 189 196 184 208 208 203 213 207 205 209 212 224 212 204 234 211 180 182 138 96 154 184 200 26 37 274 184 126 226 221 205 224 237 231 240 256 247 250 258 252 252 258 195 214 252 275 263 253 249 244 244 252 262 273 285
227 243 249 222 205 203 201 204 202 180 161 180 217 203 199 193 190 193 187 150 78 174 207 232 216 200 213 209 187 171 175 184 175 180 200 188 193 200 195 199 205 206 208 208 216 190 185 222 219 12 357 133 141 201 205 184 150 27 311 214 171 264 230 210 212 221 237 240 250 258 254 248 242 249 262 263 264 277 284 279 274 274 268 264 258 250 266 294
214 220 247 219 202 201 199 197 188 168 155 204 210 201 194 189 183 187 189 181 155 168 209 266 357 191 225 256 212 172 182 196 187 187 202 187 185 200 194 196 199 201 202 202 210 205 174 215 221 135 51 171 179 204 206 189 168 174 218 207 196 207 230 278 240 218 233 240 242 254 257 256 254 253 260 268 281 288 299 338 307 278 271 265 260 264 278 297
202 218 241 207 197 193 187 186 183 175 195 220 216 217 193 177 180 184 192 195 193 191 197 203 195 183 141 341 314 169 185 204 201 203 205 193 203 211 187 204 196 167 182 197 205 206 189 206 213 170 173 209 208 203 207 203 185 187 200 202 203 199 185 227 233 213 216 238 248 256 266 269 263 223 262 274 294 315 3 7 280 255 254 263 280 289 295 300
202 219 224 188 188 186 181 182 187 191 218 219 218 225 201 153 172 182 188 196 206 217 200 193 195 190 192 211 236 31 150 206 217 216 224 218 222 220 132 201 189 159 162 194 202 202 199 214 222 209 195 200 185 106 72 295 248 226 222 215 213 204 195 213 221 197 184 218 260 273 269 272 265 166 299 284 299 324 353 312 266 265 280 299 305 299 300 306
208 217 207 180 184 185 181 190 206 199 221 223 223 225 197 175 187 183 180 191 205 213 205 204 198 197 205 201 196 180 151 190 259 232 267 281 252 250 172 134 169 171 174 192 193 185 173 209 225 225 212 170 120 111 109 34 288 253 239 225 223 219 216 223 231 214 197 202 224 238 246 265 271 200 165 265 120 220 244 241 251 276 300 300 297 296 301 306
211 221 229 191 184 185 186 201 205 204 220 220 223 227 211 213 213 192 182 188 194 199 204 209 205 207 212 193 187 194 175 184 226 223 243 261 253 255 203 161 168 187 190 203 180 166 169 200 212 220 224 205 186 188 194 189 201 232 237 227 225 227 226 223 104 268 243 222 223 232 239 257 266 197 115 162 172 213 232 232 242 270 287 289 292 298 303 304
205 216 231 210 194 195 204 222 214 210 216 213 216 221 219 224 215 205 204 199 195 197 205 211 209 212 212 193 192 201 187 191 218 211 224 244 243 222 195 185 187 196 206 215 166 163 178 216 202 207 221 219 213 216 212 195 187 212 238 231 226 222 218 221 210 220 237 236 234 238 243 258 266 265 225 176 196 219 229 231 247 266 276 285 295 300 305 309
201 206 210 208 209 214 222 234 239 229 213 208 213 220 220 222 209 206 214 212 201 199 204 212 211 212 215 205 202 207 199 202 217 210 215 233 236 206 189 196 199 203 204 183 156 148 127 322 219 227 240 237 237 259 97 137 166 194 211 216 219 215 212 218 229 227 233 243 245 242 245 258 265 267 267 258 236 231 242 246 247 255 266 280 297 302 305 314
205 211 194 186 203 224 233 233 233 233 215 203 204 213 215 220 218 204 208 213 207 201 204 210 203 202 210 208 207 214 212 210 214 218 222 225 222 173 144 190 207 213 205 178 160 133 70 263 240 247 257 261 269 279 286 157 190 212 215 212 213 212 208 209 222 229 231 241 248 243 239 247 259 267 268 267 266 264 261 253 247 244 250 270 291 297 296 301
210 221 208 195 195 210 216 216 214 216 217 208 205 211 210 213 218 209 201 210 213 206 203 208 206 205 207 207 209 218 218 217 218 222 228 229 221 187 142 174 206 204 193 180 171 148 130 236 234 231 246 260 268 271 274 273 258 246 240 231 219 208 205 209 224 230 229 235 247 252 251 251 257 263 264 266 270 270 270 269 265 260 261 269 275 280 283 287
213 224 214 210 220 220 215 210 204 208 215 213 213 218 211 208 213 213 201 202 213 211 209 213 212 210 212 214 218 222 218 219 222 220 224 229 222 205 188 195 182 177 175 169 174 167 173 223 221 212 231 248 251 252 254 253 257 259 254 248 236 214 203 207 221 227 229 235 245 255 260 260 257 259 266 273 273 272 275 277 268 261 266 271 268 267 272 277
211 215 210 214 232 235 226 214 200 201 211 212 218 220 217 215 214 210 203 200 203 204 207 219 221 215 216 219 222 226 223 223 229 228 227 228 223 215 211 206 182 171 182 174 175 178 198 225 215 197 221 244 244 245 244 238 242 250 250 248 247 238 219 212 219 224 228 236 241 245 255 261 259 259 267 271 270 270 271 267 258 260 269 273 267 262 265 270
213 211 209 216 225 221 224 213 199 198 202 205 214 216 216 218 216 212 209 207 210 210 204 214 224 221 219 221 222 227 230 232 243 251 254 255 252 255 253 223 196 181 185 186 160 121 180 234 237 188 224 244 239 240 243 240 239 245 248 242 239 239 233 224 222 221 221 229 236 239 245 256 261 262 265 268 269 266 260 258 260 267 271 270 265 260 262 266
214 209 205 214 223 208 208 211 205 206 203 200 208 214 215 218 217 217 215 205 213 225 216 213 222 225 225 227 227 232 237 240 259 292 319 317 298 295 300 289 258 195 176 184 175 156 179 208 220 198 221 248 245 239 240 243 242 240 239 233 230 234 238 239 238 232 226 225 231 238 239 247 260 267 264 263 264 257 254 258 262 266 270 271 267 264 265 267
Height
1495 1496 1497 1499 1500 1502 1503 1504 1505 1506 1507 1508 1509 1510 1511 1512 1512 1513 1514 1514 1515 1516 1516 1517 1519 1519 1520 1521 1521 1522 1522 1522 1522 1522 1523 1523 1523 1524 1524 1524 1525 1525 1525 1526 1527 1527 1528 1528 1528 1528 1529 1529 1530 1530 1531 1531 1532 1533 1533 1536 1536 1533 1532 1531 1530 1532 1531 1532 1534 1536 1537 1537 1539 1542 1543 1544 1545 1546 1547 1548 1548 1548 1549 1550 1550 1550 1550 1551
1494 1495 1496 1498 1500 1501 1502 1504 1505 1506 1507 1508 1509 1510 1511 1511 1512 1512 1513 1514 1514 1515 1516 1517 1519 1520 1520 1521 1521 1522 1522 1522 1522 1522 1522 1522 1523 1523 1524 1524 1524 1525 1525 1526 1526 1527 1528 1528 1528 1528 1529 1529 1529 1530 1531 1531 1532 1532 1532 1535 1533 1529 1529 1528 1528 1530 1531 1532 1533 1535 1538 1537 1538 1540 1543 1543 1543 1545 1546 1546 1547 1548 1548 1548 1549 1550 1550 1550
1493 1494 1496 1497 1499 1500 1502 1503 1505 1506 1507 1508 1509 1510 1510 1510 1511 1511 1512 1513 1514 1515 1516 1517 1518 1519 1520 1521 1521 1522 1522 1522 1522 1522 1522 1522 1523 1523 1523 1524 1524 1525 1525 1525 1526 1527 1528 1528 1528 1528 1528 1528 1529 1530 1530 1531 1532 1531 1532 1534 1531 1527 1529 1530 1531 1533 1534 1534 1533 1536 1538 1538 1539 1540 1542 1542 1541 1542 1543 1543 1544 1546 1546 1547 1547 1548 1549 1550
1492 1493 1495 1497 1498 1499 1501 1502 1504 1505 1506 1507 1508 1509 1509 1509 1510 1510 1511 1512 1513 1514 1515 1517 1518 1519 1520 1520 1521 1521 1522 1522 1521 1521 1521 1522 1522 1522 1523 1523 1524 1524 1525 1525 1525 1526 1527 1527 1527 1528 1528 1527 1529 1530 1529 1531 1531 1532 1533 1533 1531 1529 1530 1532 1534 1535 1536 1536 1535 1536 1538 1539 1540 1541 1541 1541 1542 1541 1540 1541 1542 1543 1544 1544 1545 1547 1548 1548
1492 1493 1494 1496 1497 1498 1500 1501 1503 1504 1505 1506 1507 1508 1508 1508 1509 1509 1510 1511 1512 1513 1515 1516 1517 1518 1519 1520 1521 1521 1522 1521 1519 1520 1521 1521 1522 1522 1523 1523 1524 1524 1524 1525 1525 1526 1526 1527 1527 1528 1527 1526 1528 1529 1529 1530 1531 1532 1532 1532 1532 1531 1532 1534 1535 1536 1537 1537 1537 1537 1539 1539 1539 1541 1540 1541 1541 1539 1538 1539 1540 1541 1542 1543 1544 1545 1546 1547
1491 1492 1494 1495 1496 1498 1499 1500 1502 1503 1504 1505 1506 1506 1507 1508 1508 1509 1510 1511 1512 1513 1514 1515 1517 1518 1519 1520 1521 1521 1521 1520 1518 1519 1520 1521 1521 1522 1522 1523 1523 1524 1524 1525 1525 1526 1526 1527 1527 1527 1526 1525 1527 1527 1528 1531 1531 1531 1531 1532 1534 1534 1534 1536 1536 1536 1537 1538 1538 1538 1538 1539 1539 1539 1539 1540 1539 1537 1537 1538 1540 1541 1542 1543 1543 1544 1545 1545
1489 1491 1493 1494 1495 1497 1498 1499 1501 1502 1503 1504 1505 1505 1506 1507 1508 1509 1510 1511 1511 1513 1514 1515 1516 1518 1519 1519 1520 1521 1521 1519 1519 1519 1520 1521 1521 1522 1522 1523 1523 1524 1524 1525 1526 1526 1526 1527 1526 1526 1525 1525 1526 1527 1529 1531 1532 1532 1531 1533 1535 1535 1536 1536 1537 1537 1538 1539 1538 1539 1539 1539 1539 1538 1538 1538 1537 1538 1538 1538 1540 1541 1541 1542 1542 1543 1544 1544
1488 1490 1492 1493 1494 1496 1497 1498 1500 1501 1502 1503 1504 1505 1506 1507 1508 1509 1509 1510 1511 1512 1513 1515 1516 1517 1518 1519 1520 1520 1520 1519 1519 1519 1520 1520 1521 1522 1522 1523 1523 1524 1524 1525 1526 1526 1526 1526 1526 1526 1525 1525 1526 1527 1529 1531 1532 1531 1531 1534 1535 1537 1537 1537 1538 1538 1539 1539 1539 1539 1539 1539 1539 1539 1538 1535 1535 1537 1538 1537 1538 1540 1540 1541 1541 1541 1542 1543
1487 1489 1490 1492 1494 1495 1496 1497 1499 1500 1501 1502 1503 1504 1505 1506 1507 1508 1509 1510 1511 1512 1513 1514 1515 1517 1518 1519 1520 1519 1518 1519 1519 1519 1520 1520 1521 1522 1522 1523 1523 1524 1524 1525 1525 1526 1526 1526 1526 1525 1525 1526 1527 1528 1530 1531 1532 1531 1532 1534 1536 1537 1538 1538 1538 1539 1540 1540 1540 1539 1538 1538 1539 1539 1536 1532 1534 1535 1536 1536 1537 1537 1538 1539 1540 1540 1540 1541
1485 1487 1489 1491 1492 1494 1495 1496 1498 1499 1500 1502 1503 1504 1505 1506 1507 1508 1509 1510 1511 1512 1513 1514 1515 1516 1517 1518 1519 1517 1517 1518 1519 1519 1519 1520 1521 1521 1522 1523 1523 1524 1525 1525 1525 1526 1526 1526 1526 1526 1526 1526 1527 1529 1530 1531 1532 1533 1534 1535 1536 1537 1538 1538 1539 1539 1540 1540 1540 1539 1537 1537 1539 1540 1535 1530 1531 1533 1533 1535 1535 1535 1536 1537 1537 1538 1538 1539
1485 1486 1488 1489 1491 1493 1494 1496 1497 1498 1499 1501 1502 1503 1504 1505 1506 1507 1508 1509 1510 1511 1512 1513 1514 1516 1516 1518 1517 1515 1516 1517 1518 1519 1520 1520 1521 1521 1522 1523 1524 1525 1525 1526 1525 1525 1526 1525 1526 1526 1526 1526 1528 1530 1532 1533 1534 1534 1535 1535 1537 1537 1538 1538 1538 1539 1540 1539 1540 1539 1537 1536 1539 1538 1531 1529 1530 1531 1532 1533 1533 1533 1533 1535 1535 1535 1536 1536
1484 1486 1487 1488 1490 1492 1493 1495 1496 1498 1499 1500 1501 1502 1503 1504 1505 1506 1507 1508 1509 1511 1512 1513 1514 1515 1516 1517 1516 1515 1515 1517 1517 1518 1519 1520 1521 1522 1522 1523 1524 1524 1525 1526 1525 1525 1525 1526 1526 1527 1526 1526 1528 1531 1533 1534 1535 1535 1535 1535 1536 1536 1537 1537 1537 1539 1539 1539 1539 1540 1538 1534 1533 1530 1526 1528 1529 1529 1531 1532 1532 1532 1532 1533 1533 1533 1533 1533
1484 1486 1487 1488 1490 1491 1493 1494 1495 1497 1498 1499 1500 1501 1502 1503 1504 1505 1507 1508 1509 1510 1511 1512 1513 1514 1515 1515 1515 1515 1515 1516 1517 1518 1519 1520 1521 1521 1522 1523 1524 1524 1525 1525 1525 1525 1526 1526 1526 1527 1527 1527 1529 1532 1533 1535 1536 1536 1535 1535 1535 1537 1535 1534 1536 1538 1538 1539 1539 1540 1540 1529 1522 1522 1523 1526 1528 1528 1530 1530 1530 1530 1530 1531 1531 1531 1530 1530
1484 1485 1487 1488 1489 1491 1492 1493 1495 1496 1497 1499 1500 1501 1501 1502 1504 1505 1506 1507 1508 1510 1511 1512 1513 1514 1514 1514 1514 1515 1515 1515 1516 1517 1518 1519 1520 1522 1523 1523 1524 1525 1525 1525 1526 1526 1526 1526 1527 1527 1528 1529 1530 1533 1534 1535 1536 1535 1536 1536 1534 1536 1535 1533 1535 1537 1537 1538 1538 1541 1542 1529 1518 1519 1523 1524 1526 1527 1528 1528 1528 1528 1528 1529 1528 1528 1528 1528
1484 1485 1486 1488 1489 1490 1492 1493 1494 1496 1497 1498 1499 1500 1501 1502 1503 1504 1505 1506 1508 1509 1510 1511 1512 1513 1514 1514 1514 1514 1515 1515 1516 1516 1518 1519 1520 1522 1523 1524 1524 1525 1525 1526 1526 1526 1527 1527 1528 1528 1530 1531 1532 1533 1533 1535 1535 1534 1539 1538 1534 1535 1534 1533 1536 1536 1536 1538 1538 1540 1539 1528 1520 1520 1522 1523 1525 1525 1526 1526 1526 1526 1526 1527 1526 1525 1525 1526
1485 1485 1486 1488 1489 1490 1491 1493 1494 1495 1496 1497 1498 1499 1500 1501 1502 1504 1504 1506 1507 1508 1510 1511 1512 1512 1512 1512 1513 1514 1514 1514 1515 1516 1517 1519 1520 1522 1523 1524 1525 1525 1526 1526 1526 1527 1527 1528 1529 1530 1531 1532 1532 1531 1532 1536 1536 1534 1537 1535 1533 1535 1533 1533 1536 1536 1536 1537 1537 1538 1535 1526 1520 1520 1522 1523 1524 1524 1524 1524 1524 1524 1524 1524 1524 1523 1523 1523
1485 1486 1487 1488 1489 1490 1491 1492 1493 1494 1496 1497 1498 1499 1500 1501 1502 1503 1504 1505 1506 1507 1509 1510 1511 1512 1511 1511 1513 1513 1513 1513 1514 1516 1517 1519 1520 1522 1524 1525 1525 1526 1526 1527 1527 1528 1528 1529 1530 1530 1531 1531 1529 1529 1535 1541 1537 1534 1535 1533 1532 1533 1530 1531 1536 1537 1537 1537 1536 1535 1534 1528 1521 1519 1521 1521 1522 1523 1523 1522 1522 1522 1522 1522 1522 1521 1520 1521
1485 1486 1487 1488 1489 1490 1491 1492 1493 1494 1495 1496 1497 1498 1500 1501 1502 1503 1504 1505 1506 1508 1509 1509 1511 1512 1511 1510 1511 1511 1512 1513 1514 1515 1517 1519 1520 1522 1524 1525 1526 1526 1527 1527 1528 1528 1529 1530 1530 1529 1530 1531 1529 1530 1536 1538 1532 1530 1533 1533 1532 1532 1531 1530 1532 1535 1536 1536 1535 1533 1532 1528 1522 1519 1519 1519 1520 1520 1519 1519 1519 1519 1520 1519 1519 1518 1518 1518
1485 1486 1487 1488 1488 1490 1491 1492 1493 1493 1495 1496 1497 1498 1500 1501 1502 1503 1504 1505 1505 1506 1507 1507 1508 1509 1508 1507 1509 1510 1511 1513 1514 1515 1517 1518 1520 1522 1523 1525 1526 1526 1526 1526 1527 1528 1529 1530 1532 1532 1531 1530 1528 1528 1529 1528 1526 1526 1527 1530 1530 1530 1530 1528 1531 1535 1535 1535 1533 1531 1528 1525 1522 1519 1516 1516 1517 1517 1516 1516 1516 1516 1516 1516 1516 1515 1515 1515
1484 1486 1487 1487 1488 1489 1490 1491 1492 1493 1494 1495 1496 1498 1500 1501 1502 1503 1504 1504 1504 1504 1504 1504 1505 1506 1506 1506 1508 1510 1511 1513 1514 1515 1517 1518 1520 1522 1523 1525 1526 1526 1526 1524 1526 1528 1529 1531 1532 1531 1528 1526 1525 1526 1526 1526 1527 1528 1528 1530 1530 1530 1529 1527 1532 1536 1536 1535 1530 1525 1525 1522 1520 1517 1514 1514 1514 1513 1512 1512 1513 1513 1512 1511 1511 1510 1510 1510
1484 1486 1487 1488 1488 1488 1489 1490 1491 1493 1494 1495 1496 1497 1498 1499 1499 1500 1502 1503 1503 1503 1503 1504 1504 1505 1505 1506 1508 1509 1511 1513 1514 1515 1516 1518 1519 1521 1523 1524 1524 1525 1524 1525 1527 1528 1530 1532 1529 1525 1524 1524 1524 1526 1527 1528 1529 1530 1531 1532 1532 1532 1530 1529 1534 1536 1536 1536 1528 1523 1523 1520 1518 1516 1512 1511 1511 1508 1508 1508 1508 1508 1508 1507 1505 1505 1505 1506
1485 1486 1487 1488 1488 1488 1489 1490 1491 1492 1493 1494 1495 1495 1496 1497 1498 1498 1499 1501 1501 1502 1503 1504 1504 1505 1505 1507 1507 1509 1510 1512 1514 1515 1516 1518 1519 1520 1521 1522 1522 1522 1523 1526 1527 1530 1532 1530 1525 1524 1525 1526 1528 1529 1530 1531 1531 1533 1533 1534 1534 1531 1529 1532 1536 1536 1536 1536 1528 1524 1526 1519 1513 1513 1508 1507 1506 1503 1503 1504 1504 1504 1503 1502 1501 1501 1502 1503
1485 1485 1487 1488 1488 1489 1489 1490 1491 1492 1493 1494 1494 1495 1496 1497 1498 1499 1499 1499 1500 1501 1503 1503 1504 1505 1506 1507 1507 1508 1509 1510 1512 1514 1515 1517 1518 1519 1520 1520 1520 1521 1524 1525 1526 1529 1531 1527 1523 1525 1526 1528 1530 1531 1532 1533 1533 1534 1533 1535 1535 1531 1531 1534 1536 1536 1536 1534 1530 1529 1530 1519 1508 1506 1502 1500 1500 1498 1499 1500 1500 1501 1499 1497 1496 1497 1499 1500
1484 1485 1486 1487 1489 1490 1489 1490 1491 1491 1493 1493 1494 1495 1496 1497 1498 1499 1499 1499 1499 1500 1501 1502 1504 1505 1505 1506 1507 1508 1509 1509 1510 1512 1513 1516 1518 1519 1519 1519 1519 1521 1523 1522 1523 1525 1525 1526 1526 1526 1527 1527 1531 1533 1533 1534 1534 1532 1533 1534 1532 1530 1532 1533 1534 1535 1532 1532 1533 1532 1530 1516 1502 1501 1496 1493 1496 1496 1496 1497 1496 1495 1494 1492 1492 1493 1495 1496
1482 1484 1485 1487 1488 1489 1490 1491 1490 1492 1492 1492 1494 1495 1497 1498 1498 1499 1500 1499 1499 1499 1500 1501 1502 1503 1503 1505 1506 1507 1508 1509 1510 1511 1512 1515 1517 1518 1518 1519 1520 1520 1520 1521 1523 1523 1523 1527 1528 1528 1529 1528 1531 1532 1532 1534 1533 1531 1531 1532 1530 1529 1532 1534 1535 1536 1532 1532 1534 1534 1533 1517 1499 1497 1496 1492 1494 1494 1493 1493 1492 1491 1490 1489 1489 1489 1491 1492
1481 1483 1484 1486 1487 1488 1490 1490 1491 1492 1492 1493 1494 1495 1497 1497 1498 1500 1498 1500 1500 1496 1498 1500 1500 1501 1501 1503 1505 1507 1509 1508 1508 1510 1511 1514 1515 1516 1518 1520 1520 1521 1519 1521 1524 1523 1524 1529 1528 1528 1530 1531 1533 1532 1530 1532 1533 1532 1532 1533 1531 1530 1534 1536 1536 1538 1536 1533 1533 1535 1538 1529 1510 1498 1493 1491 1491 1491 1491 1489 1487 1487 1487 1486 1487 1487 1488 1489
1480 1482 1483 1485 1486 1488 1489 1489 1491 1492 1491 1493 1493 1495 1497 1496 1499 1499 1499 1508 1504 1491 1493 1498 1497 1498 1499 1501 1503 1506 1508 1505 1507 1510 1511 1513 1515 1516 1517 1518 1521 1522 1520 1524 1528 1525 1524 1529 1530 1529 1531 1532 1533 1531 1529 1530 1532 1533 1535 1536 1533 1532 1536 1537 1537 1538 1536 1534 1534 1533 1537 1539 1526 1503 1489 1489 1492 1489 1488 1486 1483 1483 1483 1484 1485 1486 1486 1487
1480 1481 1482 1483 1485 1487 1488 1489 1490 1491 1492 1492 1492 1495 1496 1496 1500 1497 1501 1514 1502 1484 1488 1494 1495 1496 1497 1500 1502 1503 1504 1502 1505 1509 1510 1512 1514 1516 1516 1515 1517 1519 1520 1524 1527 1523 1523 1528 1529 1529 1531 1531 1530 1530 1529 1529 1531 1535 1538 1536 1533 1534 1536 1535 1537 1537 1537 1540 1538 1533 1536 1539 1525 1501 1488 1488 1491 1489 1485 1481 1479 1479 1480 1482 1483 1484 1484 1485
1479 1480 1481 1483 1484 1485 1487 1488 1489 1490 1491 1491 1492 1495 1494 1497 1499 1495 1504 1511 1491 1479 1487 1490 1493 1496 1497 1500 1501 1502 1503 1503 1505 1507 1510 1513 1514 1515 1516 1516 1516 1517 1520 1522 1522 1524 1525 1527 1527 1527 1529 1528 1529 1532 1532 1530 1532 1536 1537 1535 1534 1536 1535 1537 1539 1537 1540 1544 1537 1531 1534 1533 1516 1494 1487 1490 1489 1487 1482 1477 1476 1476 1478 1481 1481 1482 1483 1483
1477 1479 1480 1483 1483 1484 1485 1487 1488 1490 1491 1491 1492 1494 1494 1498 1497 1498 1512 1506 1482 1481 1490 1488 1492 1494 1495 1498 1500 1501 1502 1503 1505 1507 1512 1514 1514 1516 1516 1517 1517 1518 1521 1522 1523 1526 1527 1528 1528 1527 1528 1527 1529 1534 1535 1534 1534 1535 1535 1535 1536 1536 1536 1538 1537 1538 1544 1540 1531 1527 1526 1529 1520 1492 1479 1484 1483 1480 1478 1475 1474 1475 1478 1479 1479 1481 1482 1482
1476 1477 1479 1481 1481 1482 1484 1486 1487 1489 1491 1491 1491 1494 1496 1497 1496 1499 1506 1493 1479 1485 1490 1489 1491 1491 1492 1494 1496 1501 1501 1503 1506 1506 1511 1513 1514 1517 1516 1518 1520 1521 1525 1525 1524 1526 1528 1529 1528 1527 1528 1528 1530 1534 1536 1536 1535 1535 1534 1534 1538 1538 1539 1540 1539 1544 1548 1537 1531 1530 1525 1529 1524 1495 1476 1477 1477 1476 1477 1476 1475 1476 1477 1477 1478 1480 1481 1482
1475 1476 1477 1479 1480 1481 1483 1484 1486 1488 1489 1489 1491 1493 1495 1499 1500 1495 1490 1483 1482 1484 1483 1486 1490 1489 1491 1490 1492 1498 1499 1502 1504 1503 1506 1509 1511 1512 1512 1513 1515 1522 1527 1523 1524 1527 1526 1525 1524 1526 1529 1528 1529 1532 1538 1539 1536 1536 1533 1535 1542 1542 1542 1544 1541 1543 1542 1533 1534 1535 1533 1529 1510 1485 1479 1478 1475 1475 1475 1475 1476 1476 1477 1476 1477 1479 1479 1481
1474 1474 1476 1478 1478 1480 1482 1483 1486 1487 1487 1489 1491 1493 1496 1501 1499 1487 1479 1479 1480 1479 1479 1484 1487 1488 1490 1490 1492 1495 1497 1500 1502 1502 1502 1505 1508 1508 1508 1507 1506 1512 1515 1513 1520 1527 1525 1523 1524 1527 1528 1527 1526 1527 1535 1538 1536 1534 1530 1534 1540 1541 1545 1546 1539 1536 1534 1533 1537 1536 1535 1526 1499 1479 1477 1475 1473 1473 1472 1474 1476 1475 1476 1476 1476 1478 1477 1478
1472 1473 1475 1476 1477 1479 1480 1482 1484 1485 1487 1489 1490 1495 1500 1500 1490 1479 1476 1477 1478 1480 1481 1483 1486 1489 1489 1489 1491 1492 1497 1500 1499 1501 1503 1504 1507 1506 1506 1506 1504 1505 1508 1510 1514 1519 1524 1522 1518 1519 1520 1521 1522 1520 1521 1525 1529 1529 1522 1525 1530 1529 1534 1536 1532 1530 1528 1530 1539 1541 1533 1515 1494 1481 1475 1472 1472 1473 1473 1474 1474 1474 1474 1474 1475 1475 1475 1475
1471 1472 1473 1475 1476 1477 1478 1480 1482 1483 1486 1489 1492 1498 1500 1495 1487 1481 1478 1476 1479 1482 1483 1483 1487 1490 1490 1490 1491 1490 1494 1498 1499 1501 1503 1502 1503 1501 1500 1501 1502 1503 1507 1512 1509 1509 1516 1512 1505 1509 1512 1513 1516 1515 1513 1519 1527 1526 1521 1525 1526 1519 1519 1526 1531 1531 1530 1532 1534 1536 1524 1497 1482 1477 1472 1474 1475 1473 1475 1475 1474 1475 1473 1473 1474 1473 1473 1474
1470 1471 1472 1473 1474 1476 1477 1478 1480 1482 1484 1486 1492 1497 1494 1487 1484 1482 1477 1476 1478 1480 1484 1486 1488 1490 1491 1491 1493 1493 1493 1496 1498 1501 1502 1500 1498 1496 1495 1494 1496 1498 1500 1505 1504 1504 1511 1509 1507 1512 1512 1511 1514 1514 1513 1517 1522 1524 1525 1525 1521 1516 1515 1523 1534 1536 1540 1540 1524 1517 1512 1491 1481 1476 1465 1469 1473 1470 1473 1473 1473 1474 1473 1473 1472 1470 1472 1472
1470 1471 1471 1472 1473 1474 1476 1478 1479 1481 1483 1484 1487 1489 1486 1484 1483 1481 1479 1478 1478 1477 1481 1485 1485 1486 1487 1488 1491 1492 1493 1495 1499 1500 1499 1500 1497 1493 1492 1490 1490 1492 1493 1495 1497 1497 1502 1508 1512 1514 1513 1514 1515 1515 1515 1516 1516 1521 1525 1520 1515 1520 1520 1521 1531 1535 1538 1537 1518 1507 1505 1496 1493 1483 1463 1465 1471 1470 1471 1470 1470 1471 1470 1472 1471 1470 1471 1471
1470 1471 1470 1470 1472 1473 1475 1477 1478 1479 1482 1483 1484 1483 1481 1481 1479 1479 1480 1480 1479 1478 1478 1479 1479 1479 1481 1483 1484 1487 1491 1493 1497 1498 1495 1497 1494 1485 1486 1489 1488 1488 1489 1493 1496 1495 1497 1506 1513 1516 1515 1515 1516 1517 1518 1517 1516 1518 1519 1515 1516 1526 1526 1523 1530 1532 1532 1532 1519 1506 1501 1495 1492 1480 1466 1468 1471 1468 1468 1468 1467 1467 1468 1470 1471 1471 1472 1471
1470 1471 1470 1469 1470 1472 1474 1476 1477 1478 1481 1483 1483 1480 1476 1476 1476 1477 1479 1480 1482 1483 1480 1478 1479 1479 1478 1478 1478 1483 1488 1488 1490 1494 1491 1492 1490 1480 1479 1485 1486 1486 1489 1492 1495 1495 1498 1503 1511 1517 1517 1516 1517 1518 1516 1515 1518 1520 1519 1517 1518 1521 1520 1517 1520 1520 1522 1525 1519 1509 1502 1490 1478 1467 1465 1468 1466 1465 1466 1465 1465 1466 1467 1469 1470 1470 1470 1470
1470 1470 1468 1467 1469 1471 1473 1476 1476 1477 1479 1478 1476 1474 1472 1473 1475 1476 1477 1479 1481 1482 1482 1481 1483 1483 1481 1480 1478 1480 1484 1484 1484 1488 1486 1485 1485 1480 1477 1480 1483 1485 1487 1491 1493 1494 1498 1501 1506 1516 1521 1518 1515 1511 1506 1507 1514 1519 1520 1519 1519 1518 1518 1518 1514 1509 1512 1517 1515 1512 1504 1483 1464 1459 1461 1462 1462 1463 1463 1464 1465 1466 1466 1467 1468 1468 1468 1468
1469 1469 1466 1465 1468 1469 1472 1474 1474 1475 1475 1472 1470 1470 1470 1471 1473 1475 1476 1478 1479 1479 1480 1482 1484 1485 1486 1486 1484 1482 1484 1484 1483 1484 1483 1481 1481 1480 1479 1479 1481 1484 1487 1491 1493 1493 1497 1499 1502 1513 1518 1513 1505 1500 1500 1501 1503 1507 1509 1509 1510 1511 1515 1522 1518 1508 1508 1511 1507 1509 1505 1480 1458 1458 1459 1459 1462 1462 1462 1465 1465 1465 1466 1466 1466 1466 1467 1467
1468 1467 1464 1464 1466 1468 1470 1471 1471 1472 1472 1469 1467 1468 1469 1470 1472 1474 1475 1477 1478 1478 1479 1481 1482 1485 1487 1488 1488 1487 1488 1488 1487 1486 1483 1480 1478 1478 1479 1480 1481 1483 1486 1489 1490 1488 1491 1495 1498 1502 1504 1503 1501 1500 1502 1502 1500 1501 1501 1499 1499 1501 1505 1513 1514 1508 1510 1511 1504 1507 1508 1481 1455 1456 1460 1459 1462 1463 1463 1465 1465 1464 1465 1464 1465 1466 1465 1466
1465 1464 1463 1463 1465 1466 1469 1470 1469 1470 1468 1465 1465 1466 1468 1469 1470 1472 1474 1475 1477 1477 1478 1479 1479 1482 1483 1484 1487 1490 1490 1491 1491 1489 1486 1484 1481 1478 1480 1482 1483 1483 1485 1487 1488 1489 1491 1495 1498 1498 1495 1497 1500 1501 1502 1503 1503 1503 1499 1496 1497 1497 1497 1500 1503 1503 1506 1508 1505 1509 1510 1483 1456 1455 1460 1459 1462 1464 1463 1464 1464 1464 1464 1464 1465 1465 1464 1465
1463 1463 1463 1463 1464 1465 1466 1465 1464 1465 1464 1463 1466 1467 1467 1467 1468 1470 1471 1472 1473 1474 1475 1476 1475 1477 1478 1480 1484 1487 1489 1492 1492 1489 1487 1486 1482 1479 1480 1482 1483 1483 1485 1486 1486 1489 1493 1494 1496 1500 1500 1501 1503 1504 1503 1504 1505 1502 1497 1496 1496 1495 1496 1499 1501 1504 1504 1501 1499 1502 1501 1480 1457 1455 1460 1460 1462 1462 1462 1463 1463 1463 1464 1464 1465 1464 1464 1464
1463 1463 1463 1463 1463 1463 1462 1459 1458 1459 1460 1463 1466 1466 1465 1466 1466 1467 1468 1468 1470 1471 1472 1472 1472 1473 1475 1477 1481 1483 1484 1487 1488 1487 1486 1485 1481 1480 1480 1481 1483 1483 1484 1485 1485 1487 1492 1493 1493 1498 1501 1499 1499 1499 1495 1495 1501 1502 1498 1496 1496 1496 1498 1500 1503 1507 1505 1498 1493 1492 1489 1474 1458 1455 1459 1460 1461 1461 1461 1462 1462 1462 1463 1464 1464 1464 1464 1463
1460 1460 1460 1461 1461 1461 1459 1457 1457 1456 1456 1459 1462 1461 1462 1463 1463 1464 1466 1467 1468 1468 1469 1469 1470 1473 1474 1475 1478 1480 1480 1482 1483 1484 1484 1483 1480 1480 1480 1481 1482 1483 1484 1486 1486 1487 1492 1494 1492 1494 1493 1487 1485 1485 1483 1484 1493 1498 1496 1495 1495 1495 1496 1499 1503 1503 1499 1496 1490 1485 1483 1477 1464 1458 1459 1459 1460 1461 1461 1461 1462 1462 1462 1463 1463 1463 1463 1463
1457 1454 1453 1455 1457 1459 1458 1457 1456 1454 1452 1454 1456 1456 1457 1459 1460 1462 1465 1465 1465 1467 1468 1468 1469 1472 1473 1474 1476 1476 1476 1477 1480 1481 1480 1479 1478 1479 1480 1481 1482 1483 1484 1486 1486 1489 1496 1498 1494 1494 1492 1485 1482 1482 1481 1484 1489 1490 1490 1492 1493 1493 1495 1499 1501 1495 1492 1495 1489 1478 1477 1478 1469 1461 1459 1459 1460 1461 1460 1460 1460 1460 1460 1461 1462 1462 1462 1463
1453 1450 1449 1450 1450 1452 1452 1451 1451 1451 1451 1452 1452 1452 1454 1456 1458 1460 1462 1463 1463 1464 1467 1468 1469 1469 1469 1471 1473 1474 1473 1474 1476 1476 1475 1476 1477 1479 1480 1480 1481 1482 1484 1487 1487 1490 1498 1500 1495 1495 1495 1490 1487 1486 1485 1486 1487 1485 1486 1487 1488 1491 1494 1497 1496 1490 1487 1489 1483 1474 1473 1473 1467 1459 1454 1456 1459 1458 1458 1459 1459 1459 1459 1459 1460 1461 1461 1461
1450 1448 1448 1449 1447 1445 1445 1445 1448 1450 1451 1452 1451 1450 1451 1453 1454 1455 1457 1460 1462 1462 1464 1466 1465 1466 1466 1467 1470 1471 1471 1472 1473 1472 1471 1473 1475 1477 1479 1480 1481 1482 1483 1486 1487 1488 1493 1493 1490 1494 1496 1492 1489 1488 1487 1489 1488 1486 1485 1483 1483 1485 1488 1490 1488 1484 1482 1481 1477 1475 1472 1467 1461 1455 1451 1454 1457 1456 1455 1457 1457 1456 1457 1457 1458 1458 1458 1459
1446 1446 1446 1448 1447 1444 1443 1445 1448 1451 1452 1452 1452 1449 1449 1450 1450 1450 1452 1456 1459 1459 1461 1462 1460 1462 1464 1465 1467 1468 1467 1468 1468 1467 1468 1472 1473 1474 1475 1475 1478 1481 1483 1484 1485 1487 1489 1486 1483 1489 1494 1490 1484 1483 1483 1485 1486 1485 1484 1483 1482 1483 1482 1482 1480 1478 1479 1480 1476 1475 1474 1463 1452 1450 1453 1453 1453 1454 1454 1454 1454 1454 1454 1455 1455 1455 1455 1455
1443 1444 1445 1445 1445 1444 1443 1443 1445 1448 1450 1451 1450 1447 1446 1446 1446 1447 1449 1450 1453 1455 1457 1458 1458 1460 1462 1462 1464 1464 1464 1466 1467 1466 1467 1470 1471 1472 1472 1471 1473 1478 1482 1483 1484 1487 1489 1486 1484 1488 1492 1487 1480 1480 1480 1479 1482 1484 1484 1482 1480 1478 1475 1473 1473 1474 1476 1477 1474 1475 1474 1461 1446 1448 1454 1450 1449 1452 1451 1450 1452 1451 1450 1451 1451 1451 1452 1451
1440 1442 1443 1444 1442 1441 1442 1442 1442 1444 1445 1445 1444 1442 1442 1443 1445 1448 1449 1450 1452 1453 1454 1456 1457 1459 1460 1461 1462 1463 1464 1465 1466 1467 1468 1470 1470 1471 1472 1472 1472 1475 1479 1481 1482 1484 1486 1486 1485 1488 1491 1484 1476 1477 1479 1480 1484 1485 1479 1473 1471 1469 1468 1468 1469 1468 1465 1466 1469 1469 1464 1454 1445 1448 1451 1447 1447 1450 1448 1448 1449 1447 1446 1448 1448 1447 1447 1446